Location: ??
(35.4824°N, 139.4679°E)
Time: 20:54:23
(UTC+00:00)

H-2A R/B - Pass Details

Date: 29 October 2020
Orbit: 577 x 656 km, 98.5° (Epoch: 23 November)

Event Time Altitude Azimuth Distance (km) Brightness Sun altitude
Rises 19:48:07 0° 202° (SSW) 2,952 5.4 -15.5°
Reaches altitude 10° 19:50:57 10° 221° (SW) 2,037 4.4 -15.0°
Enters shadow 19:52:01 14° 233° (SW) 1,777 4.0 -14.8°
